| time (UTC) | temp F | wind direction | speed MPH | gust MPH | rain 1hr in | rain 24hr in | rain mn in | humidity % | barometer mb |
| 20260502231457 | 42 | 303 | 3.0 | 12.0 | 0.00 | 0.06 | 0.00 | 57 | 1012.6 |
| 20260502230957 | 42 | 314 | 4.0 | 12.0 | 0.00 | 0.07 | 0.00 | 58 | 1012.4 |
| 20260502230457 | 42 | 7 | 4.0 | 9.0 | 0.00 | 0.07 | 0.00 | 57 | 1012.4 |
| 20260502225958 | 42 | 300 | 4.0 | 10.0 | 0.00 | 0.07 | 0.00 | 57 | 1012.4 |
| 20260502225457 | 43 | 269 | 4.0 | 13.0 | 0.00 | 0.08 | 0.00 | 57 | 1012.4 |
| 20260502224957 | 43 | 336 | 5.0 | 13.0 | 0.00 | 0.08 | 0.00 | 58 | 1012.2 |
| 20260502224457 | 43 | 292 | 3.0 | 15.0 | 0.00 | 0.08 | 0.00 | 59 | 1012.2 |
| 20260502223957 | 43 | 338 | 9.0 | 15.0 | 0.00 | 0.08 | 0.00 | 56 | 1012.2 |
| 20260502223457 | 43 | 296 | 5.0 | 9.0 | 0.00 | 0.08 | 0.00 | 58 | 1012.2 |
| 20260502222957 | 43 | 309 | 5.0 | 11.0 | 0.00 | 0.09 | 0.00 | 57 | 1012.2 |
| 20260502222457 | 43 | 340 | 6.0 | 11.0 | 0.00 | 0.09 | 0.00 | 57 | 1012.1 |
| 20260502221958 | 43 | 286 | 7.0 | 12.0 | 0.00 | 0.09 | 0.00 | 56 | 1012.2 |
| 20260502221458 | 43 | 290 | 6.0 | 12.0 | 0.00 | 0.10 | 0.00 | 56 | 1012.2 |
| 20260502221237 | 43 | 290 | 7.0 | 11.0 | 0.00 | 0.10 | 0.00 | 57 | 1012.4 |
| 20260502220458 | 43 | 305 | 6.0 | 10.0 | 0.00 | 0.10 | 0.00 | 57 | 1012.2 |
| 20260502215957 | 44 | 226 | 4.0 | 12.0 | 0.00 | 0.10 | 0.00 | 56 | 1012.2 |
| 20260502215458 | 44 | 290 | 7.0 | 13.0 | 0.00 | 0.10 | 0.00 | 57 | 1012.1 |
| 20260502214956 | 44 | 307 | 5.0 | 13.0 | 0.00 | 0.10 | 0.00 | 55 | 1012.2 |
| 20260502214459 | 44 | 292 | 6.0 | 12.0 | 0.00 | 0.10 | 0.00 | 56 | 1012.2 |
| 20260502214006 | 44 | 289 | 5.0 | 13.0 | 0.00 | 0.11 | 0.00 | 56 | 1012.1 |
| 20260502213957 | 44 | 296 | 6.0 | 10.0 | 0.00 | 0.11 | 0.00 | 57 | 1012.2 |
| 20260502212945 | 44 | 321 | 5.0 | 13.0 | 0.00 | 0.12 | 0.00 | 56 | 1012.0 |
| 20260502211958 | 44 | 310 | 6.0 | 13.0 | 0.00 | 0.12 | 0.00 | 58 | 1012.0 |
| 20260502211458 | 44 | 276 | 5.0 | 12.0 | 0.00 | 0.12 | 0.00 | 58 | 1011.9 |
| 20260502210957 | 44 | 289 | 5.0 | 13.0 | 0.00 | 0.12 | 0.00 | 56 | 1011.9 |
| 20260502210457 | 44 | 283 | 7.0 | 13.0 | 0.00 | 0.13 | 0.00 | 56 | 1011.9 |
| 20260502210046 | 44 | 305 | 7.0 | 11.0 | 0.00 | 0.13 | 0.00 | 57 | 1011.9 |
| 20260502210038 | 44 | 341 | 5.0 | 12.0 | 0.00 | 0.13 | 0.00 | 58 | 1012.0 |
| 20260502210025 | 44 | 272 | 7.0 | 11.0 | 0.00 | 0.13 | 0.00 | 57 | 1011.9 |
| 20260502204457 | 44 | 302 | 8.0 | 18.0 | 0.00 | 0.13 | 0.00 | 58 | 1011.9 |
| 20260502203959 | 44 | 289 | 10.0 | 18.0 | 0.00 | 0.13 | 0.00 | 55 | 1011.9 |
| 20260502203457 | 44 | 292 | 10.0 | 17.0 | 0.00 | 0.14 | 0.00 | 55 | 1012.0 |
| 20260502202957 | 44 | 289 | 9.0 | 16.0 | 0.00 | 0.14 | 0.00 | 56 | 1012.0 |
| 20260502202457 | 44 | 292 | 9.0 | 15.0 | 0.00 | 0.14 | 0.00 | 56 | 1012.0 |
| 20260502201957 | 44 | 271 | 9.0 | 15.0 | 0.00 | 0.14 | 0.00 | 56 | 1012.0 |
| 20260502201457 | 44 | 288 | 8.0 | 20.0 | 0.00 | 0.14 | 0.00 | 57 | 1012.1 |
| 20260502200957 | 44 | 278 | 11.0 | 20.0 | 0.00 | 0.14 | 0.00 | 57 | 1012.2 |
| 20260502200457 | 44 | 276 | 8.0 | 14.0 | 0.00 | 0.14 | 0.00 | 58 | 1012.4 |
| 20260502195958 | 44 | 272 | 6.0 | 13.0 | 0.00 | 0.14 | 0.00 | 58 | 1012.4 |
| 20260502195458 | 44 | 244 | 9.0 | 17.0 | 0.00 | 0.14 | 0.00 | 57 | 1012.4 |
| 20260502195237 | 44 | 275 | 10.0 | 17.0 | 0.00 | 0.14 | 0.00 | 59 | 1012.4 |
| 20260502194734 | 44 | 292 | 9.0 | 15.0 | 0.00 | 0.14 | 0.00 | 59 | 1012.5 |
| 20260502193957 | 44 | 285 | 6.0 | 11.0 | 0.00 | 0.14 | 0.00 | 59 | 1012.5 |
| 20260502193458 | 44 | 275 | 4.0 | 13.0 | 0.00 | 0.14 | 0.00 | 59 | 1012.6 |
| 20260502192956 | 44 | 279 | 6.0 | 13.0 | 0.00 | 0.14 | 0.00 | 57 | 1012.6 |
| 20260502192457 | 44 | 292 | 7.0 | 12.0 | 0.00 | 0.14 | 0.00 | 58 | 1012.8 |
| 20260502191957 | 45 | 288 | 8.0 | 12.0 | 0.00 | 0.14 | 0.00 | 58 | 1012.7 |
| 20260502191738 | 45 | 266 | 8.0 | 12.0 | 0.00 | 0.14 | 0.00 | 56 | 1012.8 |
| 20260502190957 | 45 | 275 | 7.0 | 15.0 | 0.00 | 0.14 | 0.00 | 58 | 1012.9 |
| 20260502190457 | 45 | 276 | 6.0 | 15.0 | 0.00 | 0.14 | 0.00 | 57 | 1012.7 |
| 20260502185957 | 45 | 279 | 7.0 | 13.0 | 0.00 | 0.14 | 0.00 | 57 | 1012.8 |
| 20260502185457 | 46 | 243 | 7.0 | 14.0 | 0.00 | 0.14 | 0.00 | 54 | 1012.9 |
| 20260502184957 | 46 | 255 | 9.0 | 14.0 | 0.00 | 0.14 | 0.00 | 55 | 1012.8 |
| 20260502184737 | 46 | 252 | 4.0 | 10.0 | 0.00 | 0.14 | 0.00 | 55 | 1012.8 |
| 20260502183957 | 46 | 268 | 7.0 | 12.0 | 0.00 | 0.14 | 0.00 | 57 | 1012.8 |
| 20260502183457 | 46 | 276 | 7.0 | 12.0 | 0.00 | 0.14 | 0.00 | 55 | 1012.8 |
| 20260502182957 | 46 | 274 | 6.0 | 12.0 | 0.00 | 0.14 | 0.00 | 57 | 1012.7 |
| 20260502182457 | 45 | 274 | 2.0 | 12.0 | 0.00 | 0.14 | 0.00 | 57 | 1012.8 |
| 20260502181957 | 45 | 274 | 6.0 | 12.0 | 0.00 | 0.14 | 0.00 | 59 | 1012.7 |
| 20260502181456 | 45 | 248 | 5.0 | 13.0 | 0.00 | 0.14 | 0.00 | 58 | 1012.7 |
| 20260502181240 | 45 | 268 | 9.0 | 13.0 | 0.00 | 0.14 | 0.00 | 58 | 1012.7 |
| 20260502180457 | 45 | 283 | 7.0 | 12.0 | 0.00 | 0.14 | 0.00 | 59 | 1012.8 |
| 20260502180219 | 45 | 296 | 3.0 | 16.0 | 0.00 | 0.14 | 0.00 | 59 | 1012.8 |
| 20260502170457 | 44 | 265 | 6.0 | 14.0 | 0.00 | 0.14 | 0.00 | 57 | 1012.7 |
| 20260502163957 | 44 | 276 | 9.0 | 16.0 | 0.00 | 0.14 | 0.00 | 59 | 1012.9 |
| 20260502163457 | 44 | 248 | 6.0 | 13.0 | 0.00 | 0.14 | 0.00 | 59 | 1013.0 |
| 20260502162957 | 44 | 302 | 9.0 | 14.0 | 0.00 | 0.14 | 0.00 | 57 | 1013.0 |
| 20260502162456 | 45 | 276 | 10.0 | 16.0 | 0.00 | 0.14 | 0.00 | 58 | 1013.1 |
| 20260502161957 | 45 | 266 | 11.0 | 16.0 | 0.00 | 0.14 | 0.00 | 56 | 1013.2 |
| 20260502161738 | 45 | 338 | 4.0 | 14.0 | 0.00 | 0.14 | 0.00 | 58 | 1013.1 |
| 20260502160956 | 45 | 276 | 5.0 | 14.0 | 0.00 | 0.14 | 0.00 | 58 | 1013.2 |
| 20260502160739 | 45 | 290 | 6.0 | 16.0 | 0.00 | 0.14 | 0.00 | 60 | 1013.2 |
| 20260502151959 | 44 | 333 | 4.0 | 13.0 | 0.00 | 0.14 | 0.00 | 57 | 1013.2 |
| 20260502151457 | 44 | 279 | 4.0 | 16.0 | 0.00 | 0.14 | 0.00 | 56 | 1013.2 |
| 20260502150956 | 44 | 268 | 10.0 | 16.0 | 0.00 | 0.14 | 0.00 | 59 | 1013.1 |
| 20260502150457 | 44 | 354 | 4.0 | 11.0 | 0.00 | 0.14 | 0.00 | 58 | 1013.2 |
| 20260502150236 | 45 | 343 | 6.0 | 11.0 | 0.00 | 0.14 | 0.00 | 59 | 1013.0 |
| 20260502130456 | 40 | 286 | 5.0 | 9.0 | 0.00 | 0.14 | 0.00 | 77 | 1013.8 |
| 20260502123456 | 37 | 278 | 3.0 | 7.0 | 0.00 | 0.14 | 0.00 | 84 | 1013.9 |
| 20260502123234 | 37 | 312 | 4.0 | 7.0 | 0.00 | 0.14 | 0.00 | 85 | 1013.8 |
| 20260502122456 | 36 | 337 | 4.0 | 10.0 | 0.00 | 0.14 | 0.00 | 85 | 1013.8 |
| 20260502121957 | 36 | 307 | 4.0 | 10.0 | 0.00 | 0.14 | 0.00 | 86 | 1013.8 |
| 20260502121458 | 36 | 274 | 4.0 | 10.0 | 0.00 | 0.14 | 0.00 | 86 | 1013.8 |
| 20260502120956 | 35 | 288 | 6.0 | 10.0 | 0.00 | 0.14 | 0.00 | 87 | 1013.8 |
| 20260502120457 | 35 | 276 | 5.0 | 11.0 | 0.00 | 0.14 | 0.00 | 87 | 1013.7 |
| 20260502115456 | 35 | 271 | 7.0 | 10.0 | 0.00 | 0.14 | 0.00 | 89 | 1013.8 |
| 20260502114956 | 34 | 314 | 5.0 | 7.0 | 0.00 | 0.14 | 0.00 | 89 | 1013.8 |
| 20260502114456 | 34 | 293 | 5.0 | 10.0 | 0.00 | 0.14 | 0.00 | 90 | 1013.8 |
| 20260502114236 | 34 | 296 | 5.0 | 10.0 | 0.00 | 0.14 | 0.00 | 90 | 1013.9 |
| 20260502113456 | 33 | 269 | 4.0 | 9.0 | 0.00 | 0.14 | 0.00 | 90 | 1013.9 |
| 20260502112956 | 33 | 285 | 6.0 | 9.0 | 0.00 | 0.14 | 0.00 | 91 | 1013.8 |
| 20260502112738 | 33 | 293 | 4.0 | 9.0 | 0.00 | 0.14 | 0.00 | 91 | 1013.9 |
| 20260502112234 | 33 | 296 | 5.0 | 9.0 | 0.00 | 0.14 | 0.00 | 91 | 1013.9 |
| 20260502111456 | 32 | 282 | 4.0 | 9.0 | 0.00 | 0.14 | 0.00 | 91 | 1013.9 |
| 20260502110957 | 32 | 285 | 5.0 | 9.0 | 0.00 | 0.14 | 0.00 | 91 | 1013.9 |
| 20260502110456 | 32 | 290 | 5.0 | 7.0 | 0.00 | 0.14 | 0.00 | 91 | 1013.8 |
| 20260502105956 | 32 | 289 | 5.0 | 7.0 | 0.00 | 0.14 | 0.00 | 91 | 1013.7 |
| 20260502105456 | 32 | 274 | 3.0 | 7.0 | 0.00 | 0.14 | 0.00 | 91 | 1013.7 |
| 20260502104957 | 31 | 289 | 5.0 | 7.0 | 0.00 | 0.14 | 0.00 | 91 | 1013.6 |
| 20260502104456 | 31 | 293 | 5.0 | 7.0 | 0.00 | 0.14 | 0.00 | 91 | 1013.6 |
| 20260502103957 | 32 | 288 | 6.0 | 7.0 | 0.00 | 0.14 | 0.00 | 91 | 1013.5 |
| 20260502103736 | 32 | 279 | 6.0 | 7.0 | 0.00 | 0.14 | 0.00 | 91 | 1013.4 |
| 20260502102956 | 32 | 281 | 6.0 | 7.0 | 0.00 | 0.14 | 0.00 | 91 | 1013.3 |
| 20260502102456 | 32 | 281 | 5.0 | 7.0 | 0.00 | 0.14 | 0.00 | 91 | 1013.2 |
| 20260502101956 | 32 | 281 | 6.0 | 7.0 | 0.00 | 0.14 | 0.00 | 91 | 1013.2 |
| 20260502101456 | 32 | 282 | 5.0 | 7.0 | 0.00 | 0.14 | 0.00 | 91 | 1013.1 |
| 20260502100957 | 32 | 288 | 6.0 | 7.0 | 0.00 | 0.14 | 0.00 | 91 | 1013.0 |
| 20260502100456 | 32 | 288 | 4.0 | 6.0 | 0.00 | 0.14 | 0.00 | 91 | 1013.0 |
| 20260502091457 | 34 | 319 | 1.0 | 3.0 | 0.00 | 0.14 | 0.00 | 91 | 1012.5 |
| 20260502091235 | 34 | 319 | 0.0 | 4.0 | 0.00 | 0.14 | 0.00 | 91 | 1012.5 |
| 20260502090456 | 34 | 319 | 0.0 | 4.0 | 0.00 | 0.14 | 0.00 | 91 | 1012.5 |
| 20260502090237 | 34 | 319 | 0.0 | 5.0 | 0.00 | 0.14 | 0.00 | 91 | 1012.5 |
| 20260502070955 | 36 | 293 | 3.0 | 4.0 | 0.00 | 0.14 | 0.00 | 93 | 1012.0 |
| 20260502070457 | 36 | 293 | 2.0 | 4.0 | 0.00 | 0.14 | 0.00 | 93 | 1012.0 |
| 20260502070236 | 36 | 306 | 2.0 | 6.0 | 0.00 | 0.14 | 0.00 | 93 | 1012.1 |
| 20260502065456 | 36 | 286 | 3.0 | 6.0 | 0.00 | 0.14 | 0.00 | 93 | 1012.0 |
| 20260502064956 | 36 | 269 | 3.0 | 5.0 | 0.00 | 0.14 | 0.00 | 93 | 1011.9 |
| 20260502064456 | 37 | 303 | 3.0 | 9.0 | 0.00 | 0.14 | 0.00 | 93 | 1012.0 |
| 20260502063956 | 37 | 288 | 5.0 | 9.0 | 0.00 | 0.14 | 0.00 | 93 | 1012.1 |
| 20260502063456 | 36 | 289 | 3.0 | 5.0 | 0.00 | 0.14 | 0.00 | 93 | 1012.2 |
| 20260502062956 | 36 | 274 | 3.0 | 7.0 | 0.00 | 0.14 | 0.00 | 93 | 1012.4 |
| 20260502062458 | 36 | 302 | 4.0 | 7.0 | 0.00 | 0.14 | 0.00 | 93 | 1012.2 |
| 20260502062237 | 36 | 281 | 4.0 | 6.0 | 0.00 | 0.14 | 0.00 | 93 | 1012.2 |
| 20260502061457 | 36 | 293 | 3.0 | 5.0 | 0.00 | 0.14 | 0.00 | 93 | 1012.4 |
| 20260502060956 | 36 | 281 | 3.0 | 5.0 | 0.00 | 0.14 | 0.00 | 93 | 1012.4 |
| 20260502060456 | 36 | 292 | 2.0 | 5.0 | 0.00 | 0.14 | 0.00 | 93 | 1012.5 |
| 20260502055955 | 36 | 292 | 2.0 | 6.0 | 0.00 | 0.14 | 0.00 | 93 | 1012.5 |
| 20260502055456 | 36 | 286 | 4.0 | 6.0 | 0.00 | 0.14 | 0.00 | 93 | 1012.4 |
| 20260502054956 | 36 | 295 | 5.0 | 5.0 | 0.00 | 0.14 | 0.00 | 93 | 1012.5 |
| 20260502054456 | 36 | 285 | 4.0 | 5.0 | 0.00 | 0.14 | 0.00 | 93 | 1012.2 |
| 20260502053956 | 36 | 310 | 3.0 | 5.0 | 0.00 | 0.14 | 0.00 | 93 | 1012.4 |
| 20260502053456 | 36 | 286 | 2.0 | 5.0 | 0.00 | 0.14 | 0.00 | 93 | 1012.4 |
| 20260502053236 | 36 | 286 | 3.0 | 5.0 | 0.00 | 0.14 | 0.00 | 93 | 1012.5 |
| 20260502052456 | 37 | 295 | 3.0 | 6.0 | 0.00 | 0.14 | 0.00 | 93 | 1012.4 |
| 20260502051955 | 37 | 290 | 3.0 | 6.0 | 0.00 | 0.14 | 0.00 | 93 | 1012.4 |
| 20260502051734 | 37 | 303 | 4.0 | 6.0 | 0.00 | 0.14 | 0.00 | 93 | 1012.4 |
| 20260502050956 | 37 | 288 | 2.0 | 5.0 | 0.00 | 0.14 | 0.00 | 93 | 1012.2 |
| 20260502050456 | 37 | 292 | 1.0 | 4.0 | 0.00 | 0.14 | 0.00 | 93 | 1012.4 |
| 20260502045956 | 37 | 326 | 2.0 | 5.0 | 0.00 | 0.14 | 0.00 | 93 | 1012.2 |
| 20260502045456 | 37 | 295 | 3.0 | 5.0 | 0.00 | 0.14 | 0.00 | 93 | 1012.4 |
| 20260502044958 | 37 | 295 | 1.0 | 3.0 | 0.00 | 0.14 | 0.00 | 93 | 1012.4 |
| 20260502044737 | 37 | 295 | 0.0 | 2.0 | 0.00 | 0.14 | 0.00 | 93 | 1012.2 |
| 20260502043955 | 37 | 295 | 0.0 | 2.0 | 0.00 | 0.14 | 0.00 | 93 | 1012.2 |
| 20260502043457 | 37 | 295 | 0.0 | 3.0 | 0.00 | 0.14 | 0.00 | 93 | 1012.2 |
| 20260502042956 | 37 | 295 | 0.0 | 3.0 | 0.00 | 0.14 | 0.00 | 93 | 1012.5 |
| 20260502042736 | 37 | 269 | 0.0 | 0.0 | 0.00 | 0.14 | 0.00 | 93 | 1012.5 |
| 20260502041956 | 37 | 269 | 0.0 | 1.0 | 0.00 | 0.14 | 0.00 | 93 | 1012.4 |
| 20260502041456 | 37 | 269 | 0.0 | 2.0 | 0.00 | 0.14 | 0.00 | 93 | 1012.4 |
| 20260502041237 | 37 | 269 | 1.0 | 4.0 | 0.00 | 0.14 | 0.00 | 93 | 1012.4 |
| 20260502040456 | 37 | 269 | 1.0 | 4.0 | 0.00 | 0.14 | 0.00 | 93 | 1012.5 |
| 20260502035958 | 38 | 281 | 1.0 | 4.0 | 0.00 | 0.14 | 0.14 | 93 | 1012.4 |
| 20260502035456 | 38 | 286 | 1.0 | 4.0 | 0.00 | 0.14 | 0.14 | 93 | 1012.2 |
| 20260502034956 | 38 | 286 | 0.0 | 5.0 | 0.00 | 0.14 | 0.14 | 93 | 1012.2 |
| 20260502034735 | 38 | 324 | 2.0 | 6.0 | 0.00 | 0.14 | 0.14 | 93 | 1012.2 |
| 20260502033956 | 38 | 281 | 2.0 | 6.0 | 0.00 | 0.14 | 0.14 | 93 | 1012.1 |
| 20260502033456 | 38 | 290 | 1.0 | 7.0 | 0.00 | 0.14 | 0.14 | 93 | 1012.1 |
| 20260502032956 | 38 | 338 | 3.0 | 7.0 | 0.01 | 0.14 | 0.14 | 93 | 1012.1 |
| 20260502032456 | 38 | 286 | 6.0 | 7.0 | 0.01 | 0.14 | 0.14 | 94 | 1012.2 |
| 20260502031955 | 39 | 313 | 4.0 | 7.0 | 0.01 | 0.14 | 0.14 | 94 | 1012.2 |
| 20260502031455 | 39 | 269 | 3.0 | 7.0 | 0.01 | 0.14 | 0.14 | 93 | 1012.1 |
| 20260502030956 | 39 | 299 | 3.0 | 10.0 | 0.01 | 0.14 | 0.14 | 94 | 1012.0 |
| 20260502030456 | 39 | 319 | 4.0 | 12.0 | 0.01 | 0.14 | 0.14 | 94 | 1011.9 |
| 20260502030237 | 39 | 274 | 4.0 | 12.0 | 0.01 | 0.13 | 0.14 | 94 | 1011.8 |
| 20260502025455 | 39 | 302 | 3.0 | 10.0 | 0.01 | 0.13 | 0.14 | 94 | 1011.8 |
| 20260502024955 | 39 | 317 | 4.0 | 10.0 | 0.01 | 0.13 | 0.14 | 94 | 1011.9 |
| 20260502024736 | 39 | 299 | 5.0 | 7.0 | 0.01 | 0.13 | 0.14 | 94 | 1011.8 |
| 20260502023955 | 39 | 298 | 4.0 | 7.0 | 0.01 | 0.13 | 0.14 | 94 | 1011.8 |
| 20260502023455 | 39 | 303 | 4.0 | 12.0 | 0.01 | 0.13 | 0.14 | 93 | 1011.9 |
| 20260502022956 | 39 | 285 | 6.0 | 12.0 | 0.00 | 0.13 | 0.13 | 93 | 1011.9 |
| 20260502022456 | 40 | 290 | 7.0 | 12.0 | 0.00 | 0.13 | 0.13 | 94 | 1012.0 |
| 20260502022018 | 40 | 281 | 6.0 | 10.0 | 0.00 | 0.13 | 0.13 | 94 | 1011.9 |
| 20260502022007 | 40 | 279 | 8.0 | 12.0 | 0.00 | 0.13 | 0.13 | 94 | 1011.9 |
| 20260502020956 | 40 | 272 | 4.0 | 9.0 | 0.00 | 0.13 | 0.13 | 94 | 1012.0 |
| 20260502020456 | 40 | 283 | 4.0 | 9.0 | 0.00 | 0.13 | 0.13 | 94 | 1012.0 |
| 20260502015956 | 40 | 285 | 5.0 | 9.0 | 0.00 | 0.13 | 0.13 | 94 | 1012.0 |
| 20260502015455 | 40 | 261 | 5.0 | 10.0 | 0.01 | 0.13 | 0.13 | 93 | 1012.0 |
| 20260502014956 | 40 | 283 | 6.0 | 10.0 | 0.01 | 0.13 | 0.13 | 93 | 1011.9 |
| 20260502014455 | 40 | 268 | 7.0 | 10.0 | 0.01 | 0.13 | 0.13 | 93 | 1011.9 |
| 20260502013955 | 40 | 254 | 6.0 | 10.0 | 0.01 | 0.13 | 0.13 | 93 | 1011.8 |
| 20260502013455 | 40 | 251 | 7.0 | 11.0 | 0.01 | 0.13 | 0.13 | 93 | 1011.8 |
| 20260502013234 | 40 | 281 | 6.0 | 11.0 | 0.01 | 0.13 | 0.13 | 93 | 1011.7 |
| 20260502012455 | 40 | 275 | 5.0 | 9.0 | 0.01 | 0.13 | 0.13 | 93 | 1011.6 |
| 20260502012236 | 40 | 292 | 4.0 | 5.0 | 0.01 | 0.13 | 0.13 | 93 | 1011.4 |
| 20260502011455 | 40 | 293 | 2.0 | 4.0 | 0.02 | 0.13 | 0.13 | 93 | 1011.4 |
| 20260502010955 | 40 | 262 | 2.0 | 3.0 | 0.02 | 0.13 | 0.13 | 93 | 1011.3 |
| 20260502010455 | 40 | 245 | 2.0 | 4.0 | 0.02 | 0.13 | 0.13 | 93 | 1011.3 |
| 20260502005956 | 40 | 248 | 2.0 | 5.0 | 0.02 | 0.11 | 0.13 | 93 | 1011.3 |
| 20260502005456 | 40 | 237 | 2.0 | 6.0 | 0.01 | 0.11 | 0.12 | 93 | 1011.3 |
| 20260502005017 | 40 | 279 | 4.0 | 7.0 | 0.02 | 0.11 | 0.12 | 92 | 1011.2 |
| 20260502005006 | 40 | 255 | 2.0 | 6.0 | 0.01 | 0.11 | 0.12 | 93 | 1011.2 |
| 20260502003956 | 40 | 250 | 3.0 | 10.0 | 0.02 | 0.11 | 0.12 | 92 | 1011.2 |
| 20260502003457 | 40 | 245 | 4.0 | 10.0 | 0.02 | 0.11 | 0.12 | 92 | 1011.2 |
| 20260502002955 | 40 | 243 | 5.0 | 10.0 | 0.02 | 0.11 | 0.12 | 92 | 1011.1 |
| 20260502002455 | 40 | 265 | 5.0 | 10.0 | 0.03 | 0.11 | 0.12 | 92 | 1011.1 |
| 20260502002234 | 40 | 254 | 4.0 | 10.0 | 0.03 | 0.11 | 0.12 | 92 | 1011.0 |
| 20260502001455 | 40 | 266 | 4.0 | 10.0 | 0.03 | 0.11 | 0.11 | 92 | 1011.1 |
| 20260502000956 | 40 | 247 | 4.0 | 9.0 | 0.04 | 0.11 | 0.11 | 92 | 1011.1 |
| 20260502000455 | 40 | 261 | 4.0 | 9.0 | 0.04 | 0.11 | 0.11 | 92 | 1011.0 |
| 20260501235956 | 41 | 255 | 5.0 | 9.0 | 0.04 | 0.07 | 0.11 | 92 | 1010.9 |
| 20260501235456 | 41 | 247 | 4.0 | 6.0 | 0.05 | 0.07 | 0.11 | 92 | 1010.8 |
| 20260501234956 | 41 | 247 | 3.0 | 7.0 | 0.05 | 0.07 | 0.10 | 91 | 1010.8 |
| 20260501234455 | 41 | 266 | 4.0 | 9.0 | 0.04 | 0.07 | 0.10 | 91 | 1010.8 |
| 20260501233955 | 41 | 283 | 4.0 | 9.0 | 0.04 | 0.07 | 0.10 | 91 | 1010.9 |
| 20260501233455 | 41 | 248 | 6.0 | 10.0 | 0.04 | 0.07 | 0.10 | 91 | 1010.9 |
| 20260501232957 | 41 | 265 | 6.0 | 10.0 | 0.05 | 0.07 | 0.09 | 91 | 1010.9 |
| 20260501232455 | 41 | 314 | 6.0 | 10.0 | 0.04 | 0.07 | 0.09 | 91 | 1010.8 |
| 20260501232236 | 41 | 248 | 6.0 | 11.0 | 0.04 | 0.07 | 0.09 | 91 | 1010.8 |